Location: Hoover
(45.1124°N, 103.2678°W)
Time: 03:32:19
(UTC+00:00)

N. Korean satellite - Pass Details

Date: 03 December 2020
Orbit: 453 x 502 km, 97.2° (Epoch: 16 January)

Event Time Altitude Azimuth Distance (km) Brightness Sun altitude
Rises 12:39:52 0° 8° (N) 2,571 10.2 -16.1°
Reaches altitude 10° 12:41:56 10° 6° (N) 1,692 9.2 -15.7°
Maximum altitude 12:45:32 62° 286° (WNW) 563 6.5 -15.1°
Drops below altitude 10° 12:49:09 10° 205° (SSW) 1,698 9.2 -14.5°
Sets 12:51:15 0° 201° (SSW) 2,581 10.2 -14.2°
